Wind_Speed
35 34 33 31 28 27 27 27 26 25 25 24 23 22 22 21 20 23 20 23 22 23 23 23 23 24 23
36 36 34 30 29 29 27 26 25 23 23 24 22 23 20 21 21 21 21 24 26 27 24 25 25 24 24
37 34 33 29 27 27 27 26 25 23 22 23 23 20 20 21 22 24 26 28 29 28 26 26 26 25 25
34 33 29 27 27 28 29 26 27 25 25 25 24 24 23 25 29 32 31 31 29 28 28 27 27 27 28
31 30 31 30 30 28 31 29 28 26 27 26 24 25 27 31 32 32 29 29 29 28 27 28 29 30 31
31 34 35 34 30 26 25 25 28 21 22 30 31 38 39 35 31 28 28 27 28 29 30 30 32 32 33
32 28 24 21 20 20 21 24 29 32 38 45 35 35 31 31 31 32 32 30 30 30 31 33 35 36 36
39 40 41 41 38 34 33 32 33 34 32 40 36 37 31 31 29 29 30 31 32 33 36 37 38 37 37
30 30 29 27 26 31 34 32 34 28 22 24 29 32 37 42 43 41 40 36 36 36 37 36 36 37 36
30 29 29 31 31 32 37 36 37 39 35 27 31 32 33 30 32 35 34 32 30 28 29 31 32 35 40
35 33 33 32 29 28 30 32 35 39 37 27 31 34 35 40 36 30 26 35 41 45 47 46 43 42 45
30 30 33 36 34 33 33 33 33 33 31 28 32 30 30 34 35 37 42 45 46 51 52 53 50 48 46
39 43 37 29 24 28 33 36 37 39 39 31 30 31 33 37 43 46 43 49 48 48 50 49 47 44 45
34 37 36 34 34 32 32 30 28 32 31 30 31 33 37 40 42 46 47 47 51 49 45 44 46 49 48
37 36 39 38 35 32 30 29 30 31 33 34 34 35 39 44 45 47 49 50 46 47 46 49 51 49 48
40 34 30 30 28 26 27 30 31 34 36 37 39 42 47 52 41 44 47 47 50 50 48 47 50 50 51
29 28 27 25 24 25 27 30 34 37 41 42 44 41 40 43 54 38 39 44 46 47 46 47 50 55 55
Wind_Direction
284 288 290 292 289 286 286 285 284 283 283 283 281 283 284 291 287 285 286 282 283 287 291 291 290 292 296
282 285 285 287 287 285 285 286 288 286 282 278 280 281 281 281 282 280 277 279 280 286 289 286 287 292 292
281 283 285 286 285 282 283 285 288 287 284 281 277 275 275 282 286 281 274 273 277 286 282 283 284 288 290
277 281 283 286 286 288 290 287 283 281 279 280 281 276 274 280 289 289 284 282 280 280 282 282 285 287 286
276 281 283 287 287 292 289 291 286 283 283 280 280 280 278 283 289 289 283 280 279 280 280 281 282 282 283
276 278 280 282 283 282 283 282 286 287 285 288 288 288 292 291 290 286 285 284 281 279 279 278 279 281 281
273 273 270 266 264 263 263 268 271 275 283 285 287 285 288 287 283 284 283 284 282 280 278 278 278 280 279
252 258 264 271 276 278 280 281 280 279 277 275 282 284 287 284 281 280 283 282 281 280 280 280 280 279 278
265 270 273 272 271 279 278 279 281 282 276 276 283 287 287 287 289 286 285 283 282 281 281 279 278 275 272
269 265 261 259 264 263 265 272 276 280 277 275 279 283 281 280 282 289 291 288 282 279 278 274 273 274 275
269 269 272 273 272 268 269 267 271 274 278 278 277 276 271 278 279 283 274 279 285 286 286 284 279 277 278
261 263 269 274 276 277 274 274 276 277 284 283 284 278 279 280 281 283 285 289 291 289 289 286 281 277 274
262 265 263 260 263 272 279 284 282 279 280 279 274 275 276 278 282 286 289 291 292 287 287 284 280 277 279
256 266 272 274 275 278 278 276 266 276 276 274 275 278 282 284 286 286 289 285 292 286 283 278 273 275 275
257 263 272 275 274 277 273 265 266 274 278 281 283 285 287 289 285 285 286 285 282 281 277 274 275 275 273
263 263 266 268 266 267 261 256 264 274 280 285 291 293 292 289 279 277 279 278 285 283 277 273 274 274 274
262 259 261 260 264 257 261 266 275 281 285 289 290 288 281 278 293 284 273 279 278 276 274 271 270 274 278
Height
1530 1531 1530 1530 1530 1528 1527 1525 1525 1524 1523 1522 1521 1521 1521 1521 1522 1522 1523 1522 1521 1520 1519 1518 1517 1516 1515
1524 1524 1525 1525 1523 1521 1520 1519 1518 1517 1517 1516 1516 1516 1517 1516 1516 1516 1516 1515 1514 1513 1512 1511 1510 1509 1508
1516 1518 1517 1518 1517 1515 1514 1512 1511 1511 1510 1510 1509 1510 1509 1509 1508 1508 1507 1507 1506 1505 1505 1503 1502 1501 1501
1511 1510 1511 1511 1511 1509 1507 1507 1505 1505 1504 1503 1503 1502 1502 1502 1501 1499 1497 1497 1497 1497 1496 1496 1495 1494 1494
1504 1504 1504 1505 1504 1503 1500 1499 1498 1498 1496 1496 1496 1495 1495 1494 1492 1492 1489 1489 1488 1489 1488 1488 1489 1487 1486
1498 1497 1497 1498 1498 1496 1495 1493 1491 1492 1490 1489 1490 1486 1486 1484 1484 1483 1482 1483 1481 1482 1481 1480 1480 1479 1478
1490 1489 1488 1489 1490 1490 1489 1488 1485 1485 1486 1478 1482 1476 1477 1477 1476 1476 1474 1474 1474 1472 1473 1472 1471 1469 1468
1481 1480 1480 1481 1482 1482 1482 1480 1476 1475 1477 1469 1472 1468 1468 1468 1467 1467 1466 1466 1465 1464 1463 1461 1460 1459 1458
1473 1473 1473 1474 1475 1475 1471 1471 1466 1464 1467 1465 1464 1461 1460 1459 1457 1458 1458 1456 1455 1453 1452 1450 1450 1448 1445
1463 1463 1465 1465 1467 1468 1465 1463 1461 1456 1459 1460 1457 1456 1451 1449 1449 1448 1446 1445 1444 1442 1441 1440 1439 1437 1433
1453 1452 1453 1455 1455 1457 1457 1456 1453 1449 1451 1452 1449 1447 1444 1439 1439 1439 1438 1435 1435 1432 1430 1429 1427 1427 1422
1443 1441 1443 1444 1445 1446 1445 1445 1445 1442 1442 1443 1440 1439 1436 1433 1430 1429 1427 1425 1423 1420 1417 1414 1412 1410 1409
1433 1434 1434 1435 1436 1437 1437 1436 1435 1434 1433 1433 1432 1430 1428 1424 1420 1417 1414 1411 1410 1407 1403 1399 1395 1394 1391
1424 1425 1426 1426 1426 1427 1427 1426 1425 1423 1424 1425 1424 1422 1418 1416 1412 1405 1404 1399 1397 1393 1390 1385 1383 1381 1378
1415 1416 1417 1417 1417 1418 1417 1417 1415 1414 1414 1414 1414 1412 1409 1405 1399 1396 1391 1386 1384 1380 1378 1371 1367 1365 1363
1407 1407 1408 1408 1409 1409 1409 1408 1407 1406 1405 1404 1403 1399 1394 1388 1391 1384 1380 1375 1370 1367 1364 1359 1351 1350 1348
1399 1399 1400 1401 1402 1401 1401 1400 1398 1397 1395 1394 1392 1389 1383 1373 1371 1376 1370 1363 1358 1353 1350 1345 1338 1332 1331